Location: Riverside Cemetery
(38.3047°N, 99.7773°W)
Time: 18:01:53
(UTC+00:00)

USA 234 - Pass Details

Date: 19 September 2020
Orbit: 1102 x 1106 km, 123.0° (Epoch: 16 October)

Event Time Altitude Azimuth Distance (km) Brightness Sun altitude
Rises 10:14:57 0° 128° (SE) 3,906 6.5 -25.5°
Reaches altitude 10° 10:17:25 10° 127° (SE) 2,951 5.8 -25.1°
Maximum altitude 10:23:55 78° 42° (NE) 1,127 3.3 -23.9°
Drops below altitude 10° 10:30:28 10° 317° (NW) 2,963 5.3 -22.7°
Sets 10:32:57 0° 316° (NW) 3,923 5.9 -22.2°
